Location: Colebrook
(42.0017°N, 73.0973°W)
Time: 10:06:25
(UTC-04:00)

Vanguard 2 - Visible Passes

Search period start: 25 October 2021 00:00
Search period end: 04 November 2021 00:00
Orbit: 553 x 2936 km, 32.9° (Epoch: 24 October)

Date Brightness Start Highest point End Pass type
(mag) Time Alt. Az. Time Alt. Az. Time Alt. Az.
25 Oct 9.2 04:08:45 42° SSE 04:08:45 42° SSE 04:13:43 10° ESE visible
25 Oct 9.1 06:10:08 14° WSW 06:15:26 29° SSW 06:20:01 10° SE visible
26 Oct 9.1 04:25:25 45° S 04:25:25 45° S 04:31:14 10° ESE visible
26 Oct 9.4 06:26:52 10° WSW 06:32:45 23° SSW 06:37:00 10° SSE visible
27 Oct 10.8 02:40:41 14° ESE 02:40:41 14° ESE 02:41:33 10° ESE visible
27 Oct 9.1 04:42:05 43° SSW 04:42:26 43° SSW 04:48:40 10° SE visible
27 Oct 9.7 06:45:14 10° WSW 06:49:59 18° SW 06:53:39 10° S visible
28 Oct 10.5 02:57:23 19° ESE 02:57:23 19° ESE 02:59:10 10° ESE visible
28 Oct 9.2 04:58:46 37° SW 04:59:55 39° SSW 05:05:59 10° SE visible
29 Oct 10.3 03:14:05 24° ESE 03:14:05 24° ESE 03:16:43 10° ESE visible
29 Oct 9.4 05:15:28 31° SW 05:17:18 33° SSW 05:23:10 10° SE visible
29 Oct 11.6 20:47:43 10° SSE 20:49:12 11° SSE 20:49:12 11° SSE visible
29 Oct 11.8 22:50:36 10° SSW 22:50:36 10° SSW 22:50:36 10° SSW visible
30 Oct 10.0 03:30:48 29° SE 03:30:48 29° SE 03:34:13 10° ESE visible
30 Oct 9.6 05:32:12 24° WSW 05:34:35 27° SSW 05:40:09 10° SSE visible
30 Oct 11.4 21:01:29 10° S 21:06:06 16° SSE 21:06:06 16° SSE visible
30 Oct 11.8 23:07:16 10° SW 23:07:32 11° SW 23:07:32 11° SW visible
31 Oct 9.9 03:47:33 33° SSE 03:47:33 33° SSE 03:51:37 10° SE visible
31 Oct 9.9 05:48:57 19° WSW 05:51:44 21° SW 05:56:48 10° S visible
31 Oct 11.3 21:16:44 10° SSW 21:23:02 21° S 21:23:02 21° S visible
31 Oct 11.8 23:24:15 10° SW 23:24:26 10° SW 23:24:26 10° SW visible
01 Nov 9.8 04:04:19 34° SSE 04:04:19 34° SSE 04:08:56 10° SE visible
01 Nov 10.1 06:05:43 13° WSW 06:08:48 16° SW 06:12:53 10° S visible
01 Nov 11.5 19:34:12 10° SE 19:37:14 11° SE 19:38:33 11° SE visible
01 Nov 11.2 21:32:41 10° SSW 21:39:57 25° S 21:39:57 25° S visible
02 Nov 9.8 04:21:07 33° S 04:21:07 33° S 04:26:05 10° SE visible
02 Nov 10.4 06:24:13 10° WSW 06:25:46 11° SW 06:27:12 10° SW visible
02 Nov 11.3 19:45:30 10° SSE 19:54:25 16° SE 19:55:28 16° SE visible
02 Nov 11.1 21:49:09 10° SSW 21:56:52 28° SSW 21:56:52 28° SSW visible
03 Nov 11.1 02:36:33 11° ESE 02:36:33 11° ESE 02:36:49 10° ESE visible
03 Nov 9.9 04:37:58 29° SSW 04:37:58 29° SSW 04:43:01 10° SSE visible
03 Nov 11.1 20:00:06 10° S 20:11:37 22° SE 20:12:21 22° SE visible
03 Nov 11.1 22:05:57 10° SW 22:13:46 30° SSW 22:13:46 30° SSW visible
